Location: Ehrke Reservoir
(40.0279°N, 99.6641°W)
Time: 06:14:05
(UTC+00:00)

Cosmos 1812 Rocket - Pass Details

Date: 20 January 2020
Orbit: 606 x 631 km, 82.5° (Epoch: 23 February)

Event Time Altitude Azimuth Distance (km) Brightness Sun altitude
Rises 00:09:08 0° 2° (N) 2,925 6.8 -5.6°
Reaches altitude 10° 00:11:34 10° 12° (NNE) 2,016 5.9 -6.0°
Maximum altitude 00:15:36 33° 76° (ENE) 1,076 4.3 -6.7°
Drops below altitude 10° 00:19:37 10° 141° (SE) 2,007 6.0 -7.5°
Sets 00:22:02 0° 151° (SSE) 2,910 6.9 -7.9°
